Location: Elmsmere
(40.9284°N, 73.8207°W)
Time: 22:22:02
(UTC+00:00)

STARLINK-2715 - Pass Details

Date: 25 June 2021
Orbit: 348 x 351 km, 53.0° (Epoch: 31 July)

Event Time Altitude Azimuth Distance (km) Brightness Sun altitude
Exits shadow 08:25:04 12° 258° (WSW) 1,200 4.8 -9.7°
Maximum altitude 08:27:32 38° 327° (NNW) 554 3.7 -9.4°
Drops below altitude 10° 08:30:19 10° 38° (NE) 1,316 7.2 -9.0°
Sets 08:32:24 0° 47° (NE) 2,162 9.2 -8.7°
